| time (UTC) | temp F | wind direction | speed MPH | gust MPH | rain 1hr in | rain 24hr in | rain mn in | humidity % | barometer mb |
| 20260505073533 | 55 | 285 | 1.0 | 4.0 | 0.00 | 0.02 | 0.02 | 49 | 1007.6 |
| 20260505073032 | 55 | 129 | 2.0 | 5.0 | 0.02 | 0.02 | 0.02 | 48 | 1007.8 |
| 20260505072527 | 56 | 134 | 2.0 | 4.0 | 0.02 | 0.02 | 0.02 | 54 | 1008.6 |
| 20260505072023 | 56 | 202 | 3.0 | 5.0 | 0.05 | 0.01 | 0.01 | 51 | 1008.7 |
| 20260505071519 | 57 | 196 | 4.0 | 5.0 | 0.07 | 0.01 | 0.01 | 47 | 1008.6 |
| 20260505071017 | 58 | 169 | 1.0 | 6.0 | 0.00 | 0.00 | 0.00 | 44 | 1008.5 |
| 20260505070514 | 58 | 188 | 4.0 | 10.0 | 0.00 | 0.00 | 0.00 | 40 | 1008.2 |
| 20260505070010 | 59 | 350 | 3.0 | 12.0 | 0.00 | 0.00 | 0.00 | 38 | 1008.0 |
| 20260505065506 | 59 | 181 | 5.0 | 7.0 | 0.00 | 0.00 | 0.00 | 38 | 1007.8 |
| 20260505065003 | 59 | 168 | 2.0 | 8.0 | 0.00 | 0.00 | 0.00 | 38 | 1007.7 |
| 20260505064459 | 59 | 199 | 6.0 | 7.0 | 0.00 | 0.00 | 0.00 | 37 | 1007.5 |
| 20260505063958 | 59 | 204 | 6.0 | 8.0 | 0.00 | 0.00 | 0.00 | 37 | 1007.1 |
| 20260505063454 | 59 | 216 | 4.0 | 10.0 | 0.00 | 0.00 | 0.00 | 37 | 1006.8 |
| 20260505062950 | 60 | 178 | 7.0 | 10.0 | 0.00 | 0.00 | 0.00 | 36 | 1006.3 |
| 20260505062448 | 60 | 205 | 8.0 | 10.0 | 0.00 | 0.00 | 0.00 | 36 | 1006.3 |
| 20260505061944 | 60 | 190 | 9.0 | 9.0 | 0.00 | 0.00 | 0.00 | 37 | 1006.3 |
| 20260505061443 | 60 | 201 | 6.0 | 9.0 | 0.00 | 0.00 | 0.00 | 37 | 1006.3 |
| 20260505060940 | 61 | 283 | 3.0 | 11.0 | 0.00 | 0.00 | 0.00 | 37 | 1006.1 |
| 20260505060437 | 61 | 169 | 4.0 | 9.0 | 0.00 | 0.00 | 0.00 | 36 | 1006.3 |
| 20260505055933 | 61 | 192 | 8.0 | 10.0 | 0.00 | 0.00 | 0.00 | 36 | 1006.0 |
| 20260505055429 | 62 | 315 | 1.0 | 7.0 | 0.00 | 0.00 | 0.00 | 36 | 1005.8 |
| 20260505054926 | 62 | 207 | 6.0 | 9.0 | 0.00 | 0.00 | 0.00 | 36 | 1005.8 |
| 20260505054424 | 62 | 161 | 4.0 | 7.0 | 0.00 | 0.00 | 0.00 | 36 | 1005.8 |
| 20260505053922 | 63 | 299 | 3.0 | 14.0 | 0.00 | 0.00 | 0.00 | 35 | 1005.7 |
| 20260505053418 | 64 | 180 | 2.0 | 9.0 | 0.00 | 0.00 | 0.00 | 35 | 1005.7 |
| 20260505052915 | 64 | 197 | 3.0 | 13.0 | 0.00 | 0.00 | 0.00 | 34 | 1005.8 |
| 20260505052412 | 65 | 316 | 3.0 | 9.0 | 0.00 | 0.00 | 0.00 | 34 | 1005.7 |
| 20260505051909 | 66 | 247 | 2.0 | 6.0 | 0.00 | 0.00 | 0.00 | 34 | 1005.7 |
| 20260505051407 | 66 | 208 | 2.0 | 6.0 | 0.00 | 0.00 | 0.00 | 34 | 1005.2 |
| 20260505050905 | 66 | 237 | 3.0 | 11.0 | 0.00 | 0.00 | 0.00 | 33 | 1004.8 |
| 20260505050403 | 67 | 211 | 4.0 | 9.0 | 0.00 | 0.00 | 0.00 | 34 | 1004.7 |
| 20260505041330 | 69 | 16 | 2.0 | 3.0 | 0.00 | 0.00 | 0.00 | 35 | 1003.9 |
| 20260505040827 | 70 | 248 | 2.0 | 5.0 | 0.00 | 0.00 | 0.00 | 34 | 1003.8 |
| 20260505040325 | 70 | 244 | 2.0 | 5.0 | 0.00 | 0.00 | 0.00 | 35 | 1004.0 |
| 20260505035821 | 70 | 221 | 4.0 | 4.0 | 0.00 | 0.00 | 0.00 | 34 | 1003.7 |
| 20260505035600 | 70 | 187 | 2.0 | 5.0 | 0.00 | 0.00 | 0.00 | 35 | 1003.8 |
| 20260505035213 | 71 | 188 | 3.0 | 4.0 | 0.00 | 0.00 | 0.00 | 35 | 1004.0 |
| 20260505034710 | 71 | 197 | 2.0 | 4.0 | 0.00 | 0.00 | 0.00 | 35 | 1003.9 |
| 20260505034207 | 71 | 255 | 1.0 | 4.0 | 0.00 | 0.00 | 0.00 | 35 | 1003.8 |
| 20260505034138 | 71 | 275 | 2.0 | 4.0 | 0.00 | 0.00 | 0.00 | 35 | 1003.9 |
| 20260505033634 | 71 | 188 | 0.0 | 4.0 | 0.00 | 0.00 | 0.00 | 38 | 1003.8 |
| 20260505033132 | 71 | 354 | 3.0 | 7.0 | 0.00 | 0.00 | 0.00 | 37 | 1004.1 |
| 20260505032907 | 71 | 325 | 2.0 | 4.0 | 0.00 | 0.00 | 0.00 | 43 | 1003.8 |
| 20260505032403 | 71 | 212 | 2.0 | 3.0 | 0.00 | 0.00 | 0.00 | 51 | 1003.6 |
| 20260505031900 | 71 | 221 | 1.0 | 2.0 | 0.00 | 0.00 | 0.00 | 51 | 1003.5 |
| 20260505031356 | 70 | 202 | 2.0 | 4.0 | 0.00 | 0.00 | 0.00 | 51 | 1003.1 |
| 20260505031246 | 70 | 201 | 1.0 | 2.0 | 0.00 | 0.00 | 0.00 | 52 | 1003.4 |
| 20260505031143 | 70 | 246 | 2.0 | 2.0 | 0.00 | 0.00 | 0.00 | 52 | 1003.3 |
| 20260505030854 | 69 | 6 | 0.0 | 6.0 | 0.00 | 0.00 | 0.00 | 53 | 1003.2 |
| 20260505030755 | 69 | 227 | 5.0 | 5.0 | 0.00 | 0.00 | 0.00 | 54 | 1003.0 |
| 20260505030709 | 69 | 227 | 5.0 | 5.0 | 0.00 | 0.00 | 0.00 | 54 | 1003.0 |
| 20260505030205 | 69 | 8 | 2.0 | 3.0 | 0.00 | 0.00 | 0.00 | 57 | 1003.0 |
| 20260505025701 | 69 | 37 | 0.0 | 3.0 | 0.00 | 0.00 | 0.00 | 59 | 1002.6 |
| 20260505025159 | 69 | 338 | 2.0 | 2.0 | 0.00 | 0.00 | 0.00 | 59 | 1002.7 |
| 20260505024657 | 68 | 190 | 2.0 | 5.0 | 0.00 | 0.00 | 0.00 | 60 | 1002.6 |
| 20260505024154 | 67 | 351 | 2.0 | 3.0 | 0.00 | 0.00 | 0.00 | 66 | 1002.2 |
| 20260505023651 | 68 | 321 | 1.0 | 1.0 | 0.00 | 0.00 | 0.00 | 64 | 1036.0 |
| 20260505023148 | 68 | 311 | 0.0 | 2.0 | 0.00 | 0.00 | 0.00 | 64 | 1035.6 |
| 20260505022727 | 68 | 345 | 1.0 | 2.0 | 0.00 | 0.00 | 0.00 | 65 | 1034.6 |
| 20260505022223 | 68 | 335 | 0.0 | 2.0 | 0.00 | 0.00 | 0.00 | 64 | 1034.6 |
| 20260505021720 | 68 | 358 | 0.0 | 0.0 | 0.00 | 0.00 | 0.00 | 62 | 1034.5 |
| 20260505021217 | 69 | 38 | 0.0 | 1.0 | 0.00 | 0.00 | 0.00 | 62 | 1034.3 |
| 20260505020713 | 69 | 35 | 0.0 | 2.0 | 0.00 | 0.00 | 0.00 | 62 | 1035.4 |
| 20260505020208 | 69 | 243 | 0.0 | 2.0 | 0.00 | 0.00 | 0.00 | 60 | 1035.2 |
| 20260505015907 | 69 | 231 | 0.0 | 0.0 | 0.00 | 0.00 | 0.00 | 60 | 1035.0 |
| 20260505015405 | 70 | 162 | 0.0 | 1.0 | 0.00 | 0.00 | 0.00 | 59 | 1035.0 |
| 20260505014902 | 70 | 238 | 0.0 | 2.0 | 0.00 | 0.00 | 0.00 | 58 | 1035.2 |
| 20260505014359 | 70 | 228 | 0.0 | 2.0 | 0.00 | 0.00 | 0.00 | 57 | 1035.0 |
| 20260505013855 | 71 | 163 | 1.0 | 2.0 | 0.00 | 0.00 | 0.00 | 57 | 1035.0 |
| 20260505013352 | 71 | 190 | 2.0 | 2.0 | 0.00 | 0.00 | 0.00 | 57 | 1034.8 |
| 20260505012851 | 72 | 175 | 2.0 | 3.0 | 0.00 | 0.00 | 0.00 | 56 | 1034.7 |
| 20260505012348 | 72 | 179 | 3.0 | 4.0 | 0.00 | 0.00 | 0.00 | 55 | 1034.7 |
| 20260505012030 | 73 | 184 | 3.0 | 4.0 | 0.00 | 0.00 | 0.00 | 55 | 1031.6 |
| 20260505011525 | 74 | 176 | 4.0 | 4.0 | 0.00 | 0.00 | 0.00 | 54 | 1031.7 |
| 20260505011023 | 75 | 179 | 3.0 | 4.0 | 0.00 | 0.00 | 0.00 | 49 | 1031.6 |
| 20260505010518 | 75 | 180 | 3.0 | 4.0 | 0.00 | 0.00 | 0.00 | 48 | 1031.6 |
| 20260505010414 | 75 | 182 | 4.0 | 4.0 | 0.00 | 0.00 | 0.00 | 48 | 1031.6 |
| 20260505010402 | 76 | 182 | 3.0 | 4.0 | 0.00 | 0.00 | 0.00 | 48 | 1031.6 |
| 20260505010252 | 76 | 177 | 3.0 | 3.0 | 0.00 | 0.00 | 0.00 | 48 | 1031.4 |
| 20260505005748 | 77 | 181 | 3.0 | 4.0 | 0.00 | 0.00 | 0.00 | 45 | 1031.5 |
| 20260505005546 | 77 | 181 | 3.0 | 4.0 | 0.00 | 0.00 | 0.00 | 45 | 1031.5 |
| 20260505005044 | 77 | 184 | 3.0 | 3.0 | 0.00 | 0.00 | 0.00 | 45 | 1031.4 |
| 20260505004541 | 78 | 191 | 2.0 | 3.0 | 0.00 | 0.00 | 0.00 | 44 | 1031.2 |
| 20260505004037 | 78 | 180 | 4.0 | 4.0 | 0.00 | 0.00 | 0.00 | 43 | 1031.4 |
| 20260505003535 | 78 | 204 | 3.0 | 3.0 | 0.00 | 0.00 | 0.00 | 41 | 1031.2 |
| 20260505003032 | 79 | 222 | 1.0 | 3.0 | 0.00 | 0.00 | 0.00 | 42 | 1031.3 |
| 20260505002532 | 79 | 183 | 1.0 | 4.0 | 0.00 | 0.00 | 0.00 | 40 | 1031.2 |
| 20260505002032 | 79 | 197 | 0.0 | 5.0 | 0.00 | 0.00 | 0.00 | 41 | 1031.3 |
| 20260505001528 | 79 | 74 | 0.0 | 2.0 | 0.00 | 0.00 | 0.00 | 41 | 1031.2 |
| 20260505001025 | 79 | 306 | 0.0 | 2.0 | 0.00 | 0.00 | 0.00 | 42 | 997.0 |
| 20260505000523 | 80 | 100 | 0.0 | 4.0 | 0.00 | 0.00 | 0.00 | 41 | 997.0 |
| 20260505000020 | 80 | 37 | 2.0 | 4.0 | 0.00 | 0.00 | 0.00 | 41 | 996.8 |
| 20260504235517 | 80 | 77 | 2.0 | 5.0 | 0.00 | 0.00 | 0.00 | 41 | 996.9 |
| 20260504235013 | 80 | 52 | 1.0 | 2.0 | 0.00 | 0.00 | 0.00 | 42 | 996.9 |
| 20260504234511 | 80 | 37 | 2.0 | 3.0 | 0.00 | 0.00 | 0.00 | 41 | 997.1 |
| 20260504234008 | 80 | 70 | 2.0 | 3.0 | 0.00 | 0.00 | 0.00 | 41 | 996.8 |
| 20260504233502 | 80 | 53 | 2.0 | 5.0 | 0.00 | 0.00 | 0.00 | 40 | 997.0 |
| 20260504233000 | 80 | 51 | 6.0 | 6.0 | 0.00 | 0.00 | 0.00 | 41 | 996.8 |
| 20260504232457 | 80 | 48 | 4.0 | 4.0 | 0.00 | 0.00 | 0.00 | 40 | 996.9 |
| 20260504231954 | 80 | 17 | 2.0 | 5.0 | 0.00 | 0.00 | 0.00 | 40 | 997.1 |
| 20260504231450 | 81 | 36 | 1.0 | 5.0 | 0.00 | 0.00 | 0.00 | 40 | 996.8 |
| 20260504230947 | 81 | 25 | 2.0 | 4.0 | 0.00 | 0.00 | 0.00 | 40 | 997.0 |
| 20260504230443 | 81 | 37 | 0.0 | 4.0 | 0.00 | 0.00 | 0.00 | 41 | 996.9 |
| 20260504225943 | 81 | 47 | 3.0 | 4.0 | 0.00 | 0.00 | 0.00 | 39 | 997.0 |
| 20260504225439 | 81 | 16 | 3.0 | 4.0 | 0.00 | 0.00 | 0.00 | 38 | 996.8 |
| 20260504224936 | 81 | 34 | 6.0 | 8.0 | 0.00 | 0.00 | 0.00 | 38 | 996.8 |
| 20260504212937 | 79 | 347 | 0.0 | 0.0 | 0.24 | 0.04 | 0.04 | 48 | 1001.5 |
| 20260504212433 | 79 | 347 | 0.0 | 0.0 | 0.24 | 0.04 | 0.04 | 48 | 1001.5 |
| 20260504211931 | 79 | 347 | 0.0 | 0.0 | 0.24 | 0.04 | 0.04 | 48 | 1001.5 |
| 20260504211427 | 81 | 66 | 0.0 | 0.0 | 0.12 | 0.02 | 0.02 | 43 | 1001.5 |
| 20260504210924 | 83 | 67 | 0.0 | 0.0 | 0.05 | 0.01 | 0.01 | 42 | 1001.4 |
| 20260504210421 | 82 | 357 | 1.0 | 1.0 | 0.00 | 0.00 | 0.00 | 43 | 1001.8 |
| 20260504205918 | 83 | 353 | 0.0 | 0.0 | 0.00 | 0.00 | 0.00 | 41 | 1001.5 |
| 20260504205416 | 82 | 353 | 3.0 | 3.0 | 0.00 | 0.00 | 0.00 | 44 | 1001.4 |
| 20260504204914 | 83 | 352 | 2.0 | 3.0 | 0.00 | 0.00 | 0.00 | 41 | 1001.6 |
| 20260504204412 | 82 | 355 | 1.0 | 2.0 | 0.00 | 0.00 | 0.00 | 42 | 1001.5 |
| 20260504203911 | 82 | 349 | 3.0 | 5.0 | 0.00 | 0.00 | 0.00 | 42 | 1001.7 |
| 20260504203408 | 82 | 344 | 3.0 | 3.0 | 0.00 | 0.00 | 0.00 | 41 | 1001.7 |
| 20260504202903 | 82 | 328 | 4.0 | 5.0 | 0.00 | 0.00 | 0.00 | 41 | 1001.8 |
| 20260504202401 | 83 | 268 | 3.0 | 3.0 | 0.00 | 0.00 | 0.00 | 42 | 1001.8 |
| 20260504201857 | 82 | 225 | 4.0 | 6.0 | 0.00 | 0.00 | 0.00 | 41 | 1002.1 |
| 20260504201355 | 83 | 333 | 2.0 | 2.0 | 0.00 | 0.00 | 0.00 | 44 | 1002.1 |
| 20260504200852 | 82 | 265 | 3.0 | 5.0 | 0.00 | 0.00 | 0.00 | 43 | 1002.0 |
| 20260504200348 | 81 | 238 | 2.0 | 2.0 | 0.00 | 0.00 | 0.00 | 42 | 1002.1 |
| 20260504195845 | 82 | 316 | 0.0 | 0.0 | 0.00 | 0.00 | 0.00 | 45 | 1002.0 |
| 20260504195340 | 82 | 222 | 2.0 | 3.0 | 0.00 | 0.00 | 0.00 | 42 | 1002.1 |
| 20260504194838 | 81 | 259 | 3.0 | 5.0 | 0.00 | 0.00 | 0.00 | 43 | 1002.2 |
| 20260504194333 | 81 | 167 | 2.0 | 3.0 | 0.00 | 0.00 | 0.00 | 43 | 1002.2 |
| 20260504193829 | 81 | 183 | 4.0 | 5.0 | 0.00 | 0.00 | 0.00 | 43 | 1002.2 |
| 20260504193327 | 82 | 180 | 2.0 | 3.0 | 0.00 | 0.00 | 0.00 | 44 | 1002.1 |
| 20260504192826 | 81 | 151 | 5.0 | 7.0 | 0.00 | 0.00 | 0.00 | 42 | 1002.0 |
| 20260504192323 | 81 | 313 | 0.0 | 1.0 | 0.00 | 0.00 | 0.00 | 48 | 1002.1 |
| 20260504191822 | 81 | 307 | 1.0 | 1.0 | 0.00 | 0.00 | 0.00 | 43 | 1002.0 |
| 20260504191319 | 81 | 291 | 3.0 | 3.0 | 0.00 | 0.00 | 0.00 | 45 | 1002.1 |
| 20260504190814 | 80 | 336 | 0.0 | 1.0 | 0.00 | 0.00 | 0.00 | 48 | 1002.1 |
| 20260504190310 | 81 | 147 | 5.0 | 7.0 | 0.00 | 0.00 | 0.00 | 45 | 1002.1 |
| 20260504185807 | 80 | 310 | 0.0 | 1.0 | 0.00 | 0.00 | 0.00 | 47 | 1002.1 |
| 20260504185305 | 80 | 287 | 2.0 | 3.0 | 0.00 | 0.00 | 0.00 | 46 | 1002.2 |
| 20260504184800 | 80 | 260 | 3.0 | 3.0 | 0.00 | 0.00 | 0.00 | 46 | 1002.3 |
| 20260504184256 | 80 | 141 | 3.0 | 5.0 | 0.00 | 0.00 | 0.00 | 48 | 1002.1 |
| 20260504183752 | 79 | 218 | 3.0 | 3.0 | 0.00 | 0.00 | 0.00 | 47 | 1002.1 |
| 20260504183249 | 79 | 226 | 6.0 | 7.0 | 0.00 | 0.00 | 0.00 | 46 | 1002.1 |
| 20260504182747 | 79 | 201 | 11.0 | 14.0 | 0.00 | 0.00 | 0.00 | 45 | 1002.2 |
| 20260504182244 | 79 | 161 | 9.0 | 10.0 | 0.00 | 0.00 | 0.00 | 44 | 1002.4 |
| 20260504181742 | 80 | 220 | 2.0 | 3.0 | 0.00 | 0.00 | 0.00 | 47 | 1002.4 |
| 20260504181239 | 80 | 255 | 2.0 | 2.0 | 0.00 | 0.00 | 0.00 | 45 | 1002.3 |
| 20260504180738 | 79 | 312 | 0.0 | 0.0 | 0.00 | 0.00 | 0.00 | 50 | 1002.5 |
| 20260504180236 | 79 | 214 | 6.0 | 7.0 | 0.00 | 0.00 | 0.00 | 47 | 1002.4 |
| 20260504175733 | 78 | 188 | 3.0 | 5.0 | 0.00 | 0.00 | 0.00 | 49 | 1002.5 |
| 20260504175230 | 79 | 265 | 1.0 | 2.0 | 0.00 | 0.00 | 0.00 | 47 | 1002.5 |
| 20260504174728 | 79 | 196 | 5.0 | 6.0 | 0.00 | 0.00 | 0.00 | 49 | 1002.4 |
| 20260504174226 | 78 | 343 | 3.0 | 3.0 | 0.00 | 0.00 | 0.00 | 47 | 1002.4 |
| 20260504173722 | 78 | 157 | 3.0 | 3.0 | 0.00 | 0.00 | 0.00 | 47 | 1002.6 |
| 20260504173219 | 79 | 206 | 5.0 | 9.0 | 0.00 | 0.00 | 0.00 | 47 | 1002.6 |
| 20260504172716 | 78 | 226 | 3.0 | 5.0 | 0.00 | 0.00 | 0.00 | 47 | 1002.5 |
| 20260504172212 | 77 | 177 | 3.0 | 3.0 | 0.00 | 0.00 | 0.00 | 48 | 1002.7 |
| 20260504171709 | 77 | 219 | 6.0 | 6.0 | 0.00 | 0.00 | 0.00 | 48 | 1002.6 |
| 20260504171206 | 77 | 174 | 4.0 | 7.0 | 0.00 | 0.00 | 0.00 | 50 | 1002.7 |
| 20260504170702 | 77 | 186 | 3.0 | 3.0 | 0.00 | 0.00 | 0.00 | 50 | 1002.6 |
| 20260504170200 | 76 | 285 | 1.0 | 1.0 | 0.00 | 0.00 | 0.00 | 48 | 1002.8 |
| 20260504160118 | 74 | 325 | 1.0 | 2.0 | 0.00 | 0.00 | 0.00 | 55 | 1002.8 |
| 20260504151039 | 71 | 195 | 3.0 | 3.0 | 0.00 | 0.00 | 0.00 | 54 | 1002.9 |
| 20260504150537 | 71 | 358 | 2.0 | 3.0 | 0.00 | 0.00 | 0.00 | 57 | 1002.9 |
| 20260504141003 | 69 | 297 | 1.0 | 2.0 | 0.00 | 0.00 | 0.00 | 60 | 1003.2 |
| 20260504140459 | 68 | 215 | 3.0 | 5.0 | 0.00 | 0.00 | 0.00 | 60 | 1003.1 |
| 20260504130424 | 65 | 295 | 1.0 | 2.0 | 0.00 | 0.00 | 0.00 | 62 | 1003.3 |
| 20260504110311 | 54 | 306 | 0.0 | 0.0 | 0.00 | 0.00 | 0.00 | 85 | 1003.0 |
| 20260504100229 | 54 | 312 | 0.0 | 0.0 | 0.00 | 0.00 | 0.00 | 85 | 1004.3 |
| 20260504081627 | 62 | 326 | 0.0 | 1.0 | 0.00 | 0.00 | 0.00 | 64 | 1005.0 |
| 20260504081123 | 62 | 330 | 0.0 | 0.0 | 0.00 | 0.00 | 0.00 | 63 | 1005.1 |
| 20260504080620 | 64 | 328 | 0.0 | 0.0 | 0.00 | 0.00 | 0.00 | 61 | 1005.0 |
| 20260504080116 | 64 | 328 | 0.0 | 1.0 | 0.00 | 0.00 | 0.00 | 58 | 1004.9 |